Find Starlink 4613

NORAD ID: 53739 Int'l Des: 2022-107 Owner: SPXS Country: US Constellation: starlink decayed
LEOCIRCULAR

Historical Track — 17. Okt. 2022

3D-Globus wird geladen...

About Starlink 4613

Starlink 4613 (NORAD 53739) is a starlink constellation satellite (v1.5) launched Sep 5, 2022 by SPXS of US. It operates in LEO, CIRCULAR orbit with a mass of 305.00 kg.

Über Starlink 4613

Beschreibung wird geladen...

Höhenverlauf

Loading altitude history...

Zweizeiliger Elementsatz

1 53739U 22107AR 22290.55048662 .49024869 12902-4 19962-3 0 9990
2 53739 53.1929 55.7457 0005817 11.0210 74.9926 16.56711661 6808
Epoch: 17. Okt. 2022 • Age: 31950 hours

Aktueller Status

Position data unavailable
Startdatum 5. Sept. 2022
Alter 3.7 years
Verglühungsdatum 17. Okt. 2022
Typ internet

Technische Details

Klassifizierung Payload
Masse 305.00 kg
Trockenmasse 290.00 kg
Gesamtmasse 305.00 kg
Länge 0.20 m
Durchmesser 2.80 m
Spannweite 9.00 m
Form Box + pan
Hersteller SPXS
Bus-Typ Starlink
Phasenstatus Unknown Transfer Status
Besitzer/Staat SPXS/US

Most Searched